FREGAT DEB, 45974

Orbit data source: Space-Track

FREGAT DEB, 45974 is space debris in LEO originally from a launch on Mon, 18 Jul 2011 UTC launched from the Tyuratam Missile And Space Complex (TTMTR). Debris objects in space refer to the collection of defunct objects orbiting the Earth. Examples of debris include non-operational satellites, rocket bodies, and fragments generated from explosions, collisions, or faulty payload assembly.

Loading next visibility...
Identifier
45974, 2011-037GF
Orbit
LEO
Country
Flag of CISCIS
Related business
Manufacturer
Lavochkin
Mission
Spacecraft
Bus & Motor
Unknown
Mass
Unknown
Launch date (UTC)
2011-07-18 (14 years ago)
Launch vehicle
Unknown
Launch site
Tyuratam Missile And Space Complex (TTMTR)
Object type
Payload
Rocket body
Debris
Shape & HBR
Unknown shape, 0.1 m
Radar Cross Section
Small (<0.1 m²)

Expand to show TLE details & history
Last TLE update: 1 day ago

TLE from 1 day ago
0 FREGAT DEB
1 45974U 11037GF  25340.47300145  .00001276  00000-0  16239-2 0  9998
2 45974  51.4792 155.8702 2159584 304.7171  36.8354 10.28512243201251
Epoch: 2025-12-06T11:21Z
TLE epoch observation values (Epoch: 2025-12-06T11:21:07.325Z)
Latitude
-0.00008°
Longitude
-89.91062°
Altitude
1,206.854 km
Speed
7.779 km/s
True Right ascension
10h 23m 28s
True Declination
0° 00' 00"
Sunlit
Object was in daylight at epoch
Visualization orbit readout
Latitude
Unknown
Longitude
Unknown
Altitude
Unknown
Speed
Unknown
Apparent Right ascension
Unknown
Apparent Declination
Unknown
Sunlit
N/A
Visualization observer readout
Local Sidereal Time
17:55:53
Azimuth
Unknown
Elevation
Unknown
Doppler factor
Unknown
Orbital elements
Apogee altitude
4,482.841 km
Perigee altitude
624.947 km
Semi-major axis
8,932.031 km
Eccentricity
0.21596
Inclination
51.4792°
RAAN
155.8702°
Arg. of periapsis
304.7171°
True anomaly
55.36652°
Mean anomaly
36.8354°
Eccentric anomaly
45.68943°
Mean motion
2.57109 °/min
Orbital period
140.02 mins
BSTAR
0.0016239
Loading maneuver chart data...
Computing Atmospheric mass density...
Loading historical data...
Loading historical data...
Loading historical data...
Loading historical data...
Loading historical data...
Loading historical data...
Loading historical data...

Documentation

Showing up to 5 results
|